Weather History for KBNA - November, 2011

Change the Weather History Date:

Monday, November 28, 2011

  Actual Average Record
Temperature  
Mean Temperature 39 °F 45 °F  
Max Temperature 43 °F 55 °F 73 °F (1990)
Min Temperature 35 °F 35 °F 10 °F (1887)
Degree Days  
Heating Degree Days 26    
Month to date heating degree days 331  
Since 1 July heating degree days 570  
Cooling Degree Days 0    
Month to date cooling degree days 6  
Year to date cooling degree days 1919  
Moisture  
Dew Point 38 °F    
Average Humidity 93    
Maximum Humidity 96    
Minimum Humidity 89    
Precipitation  
Precipitation 0.61 in 0.17 in 2.02 in (1948)
Month to date precipitation 6.11 3.97  
Year to date precipitation 47.85 42.67  
Snow  
Snow 0.00 in 0.00 in 0.50 in (1976)
Month to date snowfall 0.0 0.0  
Since 1 July snowfall 0.0 T  
Since 1 September snowfall 0.0 T  
Snow Depth 0.00 in    
Sea Level Pressure  
Sea Level Pressure 29.76 in    
Wind  
Wind Speed 8 mph (West)    
Max Wind Speed 17 mph    
Max Gust Speed 22 mph    
Visibility 6 miles    
Events Rain    
T = Trace of Precipitation, MM = Missing Value Source: NWS Daily Summary

Daily Weather History Graph

Daily Weather History Graph

Search for Another Location

Airport or City:

Trip Planner

Search our weather history database for the weather conditions in past years. The results will help you decide how hot, cold, wet, or windy it might be!

Date:

Astronomy

Nov. 28, 2011 Rise Set
Actual Time 6:36 AM CST 4:33 PM CST
Civil Twilight 6:08 AM CST 5:01 PM CST
Nautical Twilight 5:36 AM CST 5:32 PM CST
Astronomical Twilight 5:05 AM CST 6:03 PM CST
Moon 9:46 AM CST (11/28) 8:17 PM CST (11/28)
Length of Visible Light 10h 52m
Length of Day
9h 56m
Waxing Crescent, 16% of the Moon is Illuminated
Nov 28
Waxing Crescent
Dec 2
First Quarter
Dec 10
Full
Dec 17
Last Quarter
Dec 24
New

Hourly Weather History & Observations

Time (CST) Temp. Windchill Dew Point Humidity Pressure Visibility Wind Dir Wind Speed Gust Speed Precip Events Conditions
12:40 AM 41.0 °F 36.4 °F 39.2 °F 93% 29.96 in 8.0 mi NNW 6.9 mph - 0.05 in Rain Light Rain
12:53 AM 39.9 °F 35.1 °F 37.9 °F 93% 29.95 in 8.0 mi North 6.9 mph - 0.07 in Rain Light Rain
1:53 AM 39.9 °F 33.4 °F 37.9 °F 93% 29.93 in 10.0 mi North 10.4 mph - 0.05 in Rain Light Rain
2:19 AM 39.2 °F 33.0 °F 37.4 °F 93% 29.93 in 6.0 mi North 9.2 mph - 0.05 in Rain Rain
2:44 AM 39.2 °F 31.6 °F 37.4 °F 93% 29.92 in 8.0 mi NNE 12.7 mph - N/A Rain Light Rain
2:53 AM 39.9 °F 32.9 °F 37.9 °F 93% 29.92 in 9.0 mi NNE 11.5 mph - 0.09 in Rain Light Rain
3:53 AM 39.9 °F 34.5 °F 37.9 °F 93% 29.88 in 10.0 mi North 8.1 mph - 0.04 in   Overcast
4:53 AM 39.9 °F 34.5 °F 37.9 °F 93% 29.87 in 10.0 mi NNW 8.1 mph - 0.03 in Rain Light Rain
5:25 AM 39.2 °F 33.6 °F 37.4 °F 93% 29.86 in 7.0 mi NNW 8.1 mph - 0.04 in Rain Light Rain
5:38 AM 39.2 °F 33.6 °F 37.4 °F 93% 29.87 in 5.0 mi NW 8.1 mph - 0.06 in Rain Rain
5:53 AM 39.9 °F 34.5 °F 37.9 °F 93% 29.88 in 5.0 mi NNW 8.1 mph - 0.09 in Rain Rain
6:03 AM 39.2 °F 34.2 °F 37.4 °F 93% 29.87 in 7.0 mi NNW 6.9 mph - 0.01 in Rain Light Rain
6:53 AM 39.9 °F 33.4 °F 37.9 °F 93% 29.85 in 10.0 mi NNW 10.4 mph - 0.05 in Rain Light Rain
7:53 AM 39.9 °F 33.9 °F 37.9 °F 93% 29.82 in 10.0 mi NNW 9.2 mph - 0.02 in Rain Light Rain
8:33 AM 41.0 °F 35.8 °F 39.2 °F 93% 29.80 in 2.0 mi NW 8.1 mph - 0.00 in Rain Light Rain
8:53 AM 41.0 °F 34.3 °F 39.0 °F 93% 29.78 in 2.0 mi NW 11.5 mph - 0.02 in Rain Light Rain
9:53 AM 41.0 °F 35.2 °F 39.0 °F 93% 29.76 in 2.0 mi NNW 9.2 mph - 0.04 in Rain Light Rain
10:53 AM 42.1 °F 36.6 °F 39.9 °F 92% 29.73 in 2.0 mi NNW 9.2 mph - 0.02 in Rain Light Rain
11:10 AM 42.8 °F 38.0 °F 39.2 °F 87% 29.71 in 1.8 mi NNW 8.1 mph - 0.01 in Rain Light Rain
11:53 AM 42.1 °F 36.1 °F 39.9 °F 92% 29.69 in 1.5 mi NNW 10.4 mph - 0.02 in Rain Light Rain
12:12 PM 42.8 °F 36.6 °F 39.2 °F 87% 29.68 in 1.5 mi NW 11.5 mph - 0.01 in Rain Light Rain
12:53 PM 42.1 °F 37.7 °F 39.9 °F 92% 29.68 in 1.5 mi NW 6.9 mph - 0.02 in   Overcast
1:53 PM 43.0 °F 37.7 °F 41.0 °F 93% 29.65 in 2.0 mi WNW 9.2 mph - 0.01 in   Light Drizzle
2:00 PM 42.8 °F 40.1 °F 39.2 °F 87% 29.65 in 3.0 mi Variable 4.6 mph - 0.00 in   Light Drizzle
2:25 PM 42.8 °F 40.1 °F 39.2 °F 87% 29.66 in 2.0 mi West 4.6 mph - 0.00 in   Light Drizzle
2:35 PM 42.8 °F 40.1 °F 41.0 °F 93% 29.66 in 1.5 mi WSW 4.6 mph - 0.00 in   Light Drizzle
2:53 PM 42.1 °F 38.4 °F 41.0 °F 96% 29.67 in 1.8 mi WSW 5.8 mph - 0.01 in   Light Drizzle
3:15 PM 42.8 °F 40.1 °F 39.2 °F 87% 29.67 in 1.5 mi WSW 4.6 mph - 0.01 in   Light Drizzle
3:33 PM 42.8 °F 40.1 °F 39.2 °F 87% 29.67 in 2.0 mi SW 4.6 mph - 0.01 in   Light Drizzle
3:53 PM 42.8 °F 39.3 °F 39.2 °F 87% 29.68 in 2.0 mi SW 5.8 mph - N/A   Light Drizzle
4:06 PM 42.8 °F 39.3 °F 39.2 °F 87% 29.69 in 6.0 mi SW 5.8 mph - 0.00 in   Light Drizzle
4:53 PM 41.0 °F 38.0 °F 39.0 °F 93% 29.71 in 6.0 mi SSW 4.6 mph - 0.00 in   Light Drizzle
5:53 PM 41.0 °F 36.4 °F 39.0 °F 93% 29.72 in 4.0 mi SSW 6.9 mph - 0.00 in   Light Drizzle
6:06 PM 41.0 °F 38.0 °F 39.2 °F 93% 29.72 in 5.0 mi SSW 4.6 mph - N/A   Light Drizzle
6:40 PM 39.2 °F 35.9 °F 37.4 °F 93% 29.71 in 10.0 mi SSW 4.6 mph - N/A Rain Light Rain
6:53 PM 39.9 °F - 37.9 °F 93% 29.73 in 10.0 mi Calm Calm - 0.01 in Rain Light Rain
7:50 PM 39.2 °F 35.0 °F 37.4 °F 93% 29.71 in 10.0 mi SSW 5.8 mph - 0.01 in   Light Drizzle
7:53 PM 39.9 °F 35.1 °F 37.9 °F 93% 29.73 in 10.0 mi SSW 6.9 mph - 0.01 in   Light Drizzle
8:11 PM 39.2 °F 33.6 °F 37.4 °F 93% 29.72 in 10.0 mi SW 8.1 mph - 0.00 in   Light Drizzle
8:53 PM 39.0 °F 32.8 °F 36.0 °F 89% 29.74 in 6.0 mi SSW 9.2 mph - 0.00 in Rain Light Rain
9:30 PM 37.4 °F 30.8 °F 35.6 °F 93% 29.73 in 10.0 mi SSW 9.2 mph - 0.00 in   Light Drizzle
9:53 PM 37.9 °F 30.9 °F 35.1 °F 89% 29.74 in 10.0 mi SSW 10.4 mph - 0.00 in   Light Drizzle
10:23 PM 37.4 °F 30.3 °F 33.8 °F 87% 29.73 in 7.0 mi South 10.4 mph - 0.00 in   Light Drizzle
10:33 PM 37.4 °F 29.3 °F 33.8 °F 87% 29.73 in 7.0 mi SSW 12.7 mph - 0.00 in   Light Drizzle
10:41 PM 35.6 °F 29.2 °F 33.8 °F 93% 29.73 in 7.0 mi SSW 8.1 mph - 0.00 in   Light Drizzle
10:45 PM 35.6 °F 28.0 °F 33.8 °F 93% 29.74 in 7.0 mi SSW 10.4 mph - 0.00 in   Light Drizzle
10:53 PM 36.0 °F 29.0 °F 33.1 °F 89% 29.74 in 7.0 mi SSW 9.2 mph - 0.00 in   Light Drizzle
11:18 PM 35.6 °F 28.6 °F 33.8 °F 93% 29.73 in 7.0 mi SSW 9.2 mph - 0.00 in   Light Drizzle
11:48 PM 35.6 °F 30.7 °F 33.8 °F 93% 29.73 in 7.0 mi SSW 5.8 mph - 0.00 in   Light Drizzle
11:53 PM 35.1 °F 29.3 °F 33.1 °F 92% 29.73 in 7.0 mi SSW 6.9 mph - 0.00 in   Light Drizzle